Probability
0 0 0 0 0 0 0 0 0 0 0 0 0 0 0 0 0 0 0 0 0 0 0 0 0 0 0 0 0 0 0 0 0 0 0 0 0 0
0 0 0 0 0 0 0 0 0 0 0 0 0 0 0 0 0 0 0 0 0 0 0 0 0 0 0 0 0 0 0 0 0 0 0 0 0 0
0 0 0 0 0 0 0 0 0 0 0 0 0 0 0 0 0 0 0 0 0 0 0 0 0 0 0 0 0 0 0 0 0 0 0 0 0 0
0 0 0 0 0 0 0 0 0 0 0 0 0 0 0 0 0 0 0 0 0 0 0 0 0 0 0 0 0 0 0 0 0 0 0 0 0 0
0 0 0 0 0 0 0 0 0 0 0 0 0 0 0 0 0 0 0 0 0 0 0 0 0 0 0 0 0 0 0 0 0 0 0 0 0 0
0 0 0 0 0 0 0 0 0 0 0 0 0 0 0 0 0 0 0 0 0 0 0 0 0 0 0 0 0 0 0 0 0 0 0 0 0 0
0 0 0 0 0 0 0 0 0 0 0 0 0 0 0 0 0 0 0 0 0 0 0 0 0 0 0 0 0 0 0 0 0 0 0 0 0 0
0 0 0 0 0 0 0 0 0 0 0 0 0 0 0 0 0 0 0 0 0 0 0 0 0 0 0 0 0 0 0 0 0 0 0 0 0 0
0 0 0 0 0 0 0 0 0 0 0 0 0 0 0 0 0 0 0 0 0 0 0 0 0 0 0 0 0 0 0 0 0 0 0 0 0 0
0 0 0 0 0 0 0 0 0 0 0 0 0 0 0 0 0 0 0 0 0 0 0 0 0 0 0 0 0 0 0 0 0 0 0 0 0 0
0 0 0 0 0 0 0 0 0 0 0 0 0 0 0 0 0 0 0 0 0 0 0 0 0 0 0 0 0 0 0 0 0 0 0 0 0 0
0 0 0 0 0 0 0 0 0 0 0 0 0 0 0 0 0 0 0 0 0 0 0 0 0 0 0 0 0 0 0 0 0 0 0 0 0 0
0 0 0 0 0 0 0 0 0 0 0 0 0 0 0 0 0 0 0 0 0 0 0 0 0 0 0 0 0 0 0 0 0 0 0 0 0 0
0 0 0 0 0 0 0 0 0 0 0 0 0 0 0 0 0 0 0 0 0 0 0 0 0 0 0 0 0 0 0 0 0 0 0 0 0 0
0 0 0 0 0 0 0 0 0 0 0 0 0 0 0 0 0 0 0 0 0 0 0 0 0 0 0 0 0 0 0 0 0 0 0 0 0 0
0 0 0 0 0 0 0 0 0 0 0 0 0 0 0 0 0 0 0 0 0 0 0 0 0 0 0 0 0 0 0 0 0 0 0 0 0 0
0 0 0 0 0 0 0 0 0 0 0 0 0 0 0 0 0 0 0 0 0 0 0 0 0 0 0 0 0 0 0 0 0 0 0 0 0 0
0 0 0 0 0 0 0 0 0 0 0 0 0 0 0 0 0 0 0 0 0 0 0 0 0 0 0 0 0 0 0 0 0 0 0 0 0 0
0 0 0 0 0 0 0 0 0 0 0 0 0 0 0 0 0 0 0 0 0 0 0 0 0 0 0 0 0 0 0 0 0 0 0 0 0 0
0 0 0 0 0 0 0 0 0 0 0 0 0 0 0 0 0 0 0 0 0 0 0 0 0 0 0 0 0 0 0 0 0 0 0 0 0 0
0 0 0 0 0 0 0 0 0 0 0 0 0 0 0 0 0 0 0 0 0 0 0 0 0 0 0 0 0 0 0 0 0 0 0 0 0 0
0 0 0 0 0 0 0 0 0 0 0 0 0 0 0 0 0 0 0 0 0 0 0 0 0 0 0 0 0 0 0 0 0 0 0 0 0 0
0 0 0 0 0 0 0 0 0 0 0 0 0 0 0 0 0 0 0 0 0 0 0 0 0 0 0 0 0 0 0 0 0 0 0 0 0 0
Wind_Speed
2 2 1 1 1 1 1 2 2 3 3 3 2 1 1 1 3 2 3 6 7 8 8 9 9 10 9 10 10 10 10 10 8 8 8 8 7 6
2 2 1 1 1 1 1 1 2 3 3 1 1 1 2 2 3 3 3 6 6 7 7 8 9 9 10 10 10 11 11 11 11 9 9 9 8 7
2 2 1 1 0 0 1 1 2 2 3 1 1 1 2 2 2 3 3 3 3 6 7 8 8 8 9 9 10 10 10 10 10 10 9 9 9 9
2 2 1 1 0 0 1 1 1 2 2 2 2 2 2 2 3 3 2 3 3 6 7 7 8 8 8 8 9 9 9 9 9 10 9 9 8 8
2 2 1 1 1 1 1 1 1 1 1 1 2 1 1 2 2 2 2 2 3 4 6 6 7 7 7 7 7 8 8 8 8 8 8 8 8 7
2 2 1 1 1 1 1 1 1 1 1 1 2 1 1 2 2 2 1 1 1 2 4 5 6 7 7 6 6 6 6 6 6 7 7 7 7 7
2 2 1 1 1 2 1 1 1 1 1 1 1 1 2 2 3 2 2 1 1 1 1 2 2 3 4 5 5 5 5 5 5 5 5 5 5 5
2 1 1 1 1 2 2 1 1 2 2 2 2 2 3 3 2 3 3 2 2 0 1 1 1 1 1 2 2 3 3 4 4 4 4 4 4 4
2 2 1 1 3 2 3 4 4 3 0 2 3 3 3 4 5 3 3 2 2 1 1 1 1 1 0 2 2 2 3 3 3 3 3 3 3 2
2 2 2 2 1 2 2 3 3 4 3 1 1 2 2 3 4 4 4 4 3 1 1 1 1 0 1 1 3 2 3 3 2 2 2 2 1 1
2 2 3 2 3 4 3 2 2 3 4 5 4 3 3 6 6 5 4 3 2 1 0 2 1 0 0 0 2 3 1 2 2 1 1 1 1 1
1 2 4 4 5 4 4 3 2 0 1 3 4 6 5 4 4 3 4 3 2 2 2 2 1 1 0 0 1 1 2 1 1 1 1 1 1 1
2 2 2 5 5 5 5 4 4 3 2 2 2 2 3 3 3 3 2 3 3 2 2 3 2 1 1 1 1 0 0 0 1 1 2 3 2 1
3 3 3 6 6 6 4 5 6 4 3 2 1 1 1 1 1 2 2 2 2 2 3 3 3 3 2 1 1 1 1 1 1 1 1 3 3 4
4 6 7 7 6 4 5 6 4 3 3 2 2 2 1 2 2 2 2 3 3 2 2 2 3 3 2 2 2 1 1 1 1 1 1 1 2 2
3 5 6 6 5 4 4 2 2 4 4 3 2 2 2 2 2 2 1 1 1 0 1 2 3 3 2 3 3 3 3 2 1 2 2 3 3 3
4 2 2 2 2 2 2 2 3 3 3 3 3 3 3 3 2 2 2 2 2 1 1 1 1 2 3 3 3 5 4 3 3 3 2 3 4 5
6 3 4 4 4 4 4 4 4 4 4 4 4 4 4 4 3 3 2 3 3 3 2 2 2 0 1 4 9 6 4 4 3 4 3 3 4 4
6 4 4 5 5 5 5 5 4 4 4 4 5 4 4 4 4 4 4 4 4 3 3 3 3 3 2 3 3 7 5 3 2 3 4 4 5 4
4 5 5 5 5 5 5 5 5 4 4 5 5 5 5 5 4 5 5 5 5 4 4 4 5 6 6 4 3 3 7 5 3 3 3 3 5 8
5 5 5 5 5 5 5 5 5 5 5 5 5 6 6 6 6 6 6 9 7 5 6 6 7 9 3 2 3 4 4 8 8 4 3 3 4 3
5 5 5 5 5 5 5 5 5 5 6 6 6 6 6 6 7 7 7 6 7 7 6 4 3 4 5 6 7 5 4 4 7 13 12 10 4 4
5 5 5 5 5 5 5 6 7 6 6 6 6 6 7 7 6 6 7 7 6 6 6 4 4 4 5 6 7 6 7 5 4 5 7 13 18 20
Wind_Direction
150 162 178 197 199 212 215 213 229 252 245 199 177 136 131 109 96 79 70 75 73 72 69 65 60 56 54 54 58 60 61 64 67 69 71 79 84 85
137 150 164 184 194 206 231 241 236 243 253 163 166 155 153 134 113 87 77 81 77 80 79 74 69 64 61 60 64 64 62 63 62 67 72 77 77 81
137 147 158 161 188 235 237 229 234 235 246 181 124 127 141 144 111 87 74 62 61 78 83 80 77 73 71 68 66 65 63 63 62 63 70 74 75 77
148 144 152 133 181 270 262 255 248 241 230 210 159 147 150 151 124 107 82 70 60 73 82 85 85 80 77 73 70 69 67 67 64 62 64 69 74 76
139 148 154 146 237 272 270 265 258 258 224 174 160 137 132 133 116 94 82 55 58 65 77 79 85 85 81 76 75 74 73 71 69 67 65 65 67 69
112 127 150 175 216 238 249 254 248 237 194 157 150 145 135 124 130 140 128 70 51 45 65 66 73 73 71 73 79 78 77 76 74 72 72 69 67 66
98 94 110 156 202 206 209 224 210 205 186 173 166 153 162 162 180 159 149 116 64 45 65 46 50 50 42 43 63 80 83 82 79 79 77 75 71 67
134 121 106 93 76 65 60 74 170 193 200 185 189 200 198 184 149 148 137 144 193 175 114 82 66 79 38 12 41 79 96 96 91 84 78 78 75 70
155 151 128 100 84 70 55 48 35 24 215 186 201 210 194 184 161 153 158 157 166 154 127 132 69 117 21 346 7 102 114 110 97 90 85 79 74 65
155 162 158 147 147 129 99 68 39 20 18 46 208 219 203 174 164 155 142 114 88 54 102 145 151 161 21 345 354 106 126 120 104 97 91 82 67 49
159 170 173 178 195 165 132 114 61 13 33 70 82 100 131 144 138 119 126 122 137 169 121 138 144 113 14 337 355 26 93 119 115 101 71 35 353 37
172 193 207 205 210 194 160 156 166 228 45 55 55 55 58 85 116 128 144 136 141 187 180 139 131 113 94 328 354 4 21 37 69 45 338 288 275 99
189 199 220 224 220 212 188 181 202 176 133 108 84 66 57 55 54 66 95 137 150 186 163 135 132 124 144 278 312 354 39 347 348 344 343 314 279 195
193 198 212 223 224 220 204 198 202 169 136 133 131 134 121 102 77 75 79 80 97 154 155 136 143 156 147 190 260 308 300 254 228 236 294 316 313 300
195 205 213 221 226 226 219 212 194 156 151 170 192 200 187 156 127 99 77 73 65 74 119 136 142 149 159 185 220 243 280 265 219 219 238 250 264 279
192 210 219 222 211 204 218 216 171 171 174 187 192 181 152 148 158 150 142 127 112 70 94 138 156 159 180 205 211 235 225 246 240 221 245 260 256 240
161 152 162 174 191 188 189 191 183 185 196 180 180 179 181 180 180 164 160 159 175 183 192 171 181 193 206 196 225 236 232 234 235 231 242 266 254 241
185 180 194 199 206 207 206 206 202 202 200 192 192 193 195 194 190 178 179 185 202 206 200 185 160 150 291 252 222 234 235 239 233 225 216 245 270 249
205 197 203 207 210 210 209 208 211 207 196 196 201 201 199 197 194 198 199 203 214 215 207 186 178 176 214 272 263 214 206 212 216 225 222 226 255 266
202 206 211 210 210 211 212 213 214 204 198 202 204 204 200 198 202 206 205 208 214 213 212 200 200 200 208 221 249 251 214 209 212 234 246 248 259 269
211 212 211 210 212 212 212 212 210 208 204 201 207 205 202 203 210 211 210 221 218 216 224 223 220 215 198 183 249 254 234 223 220 219 225 254 273 268
219 220 216 213 213 212 212 210 212 214 211 211 211 208 205 204 212 212 211 214 217 219 227 223 186 183 186 212 238 248 252 244 244 247 244 231 223 234
224 222 220 216 215 214 213 214 216 219 215 213 213 210 206 209 212 213 214 215 218 220 219 212 194 198 211 220 238 249 253 252 250 256 253 250 249 252